Location: Melbourne
(37.8170°S, 144.9670°E)
Time: 21:30:02
(UTC+11:00)

ISS - Visible Passes

Search period start: 18 December 2014 00:00
Search period end: 28 December 2014 00:00
Orbit: 404 x 415 km, 51.6° (Epoch: 18 December)

Date Brightness Start Highest point End Pass type
(mag) Time Alt. Az. Time Alt. Az. Time Alt. Az.
18 Dec -0.5 02:58:51 13° E 02:58:51 13° E 02:59:27 10° E visible
18 Dec -2.5 04:31:36 21° W 04:33:31 44° SW 04:36:47 10° SE visible
19 Dec -3.4 03:42:49 84° WSW 03:42:52 85° SW 03:46:15 10° SE visible
19 Dec -0.7 05:17:50 10° WSW 05:19:54 15° SSW 05:22:00 10° SSE visible
20 Dec -1.2 02:53:55 24° ESE 02:53:55 24° ESE 02:55:29 10° ESE visible
20 Dec -1.2 04:26:39 12° WSW 04:29:00 21° SSW 04:31:41 10° SSE visible
21 Dec -2.0 03:37:39 31° SW 03:38:06 33° SSW 03:41:13 10° SE visible
21 Dec -0.2 05:15:07 10° SSW 05:15:32 10° SSW 05:15:56 10° S visible
22 Dec -1.5 02:48:33 32° SSE 02:48:33 32° SSE 02:50:34 10° SE visible
22 Dec -0.5 04:22:45 10° SW 04:24:24 13° SSW 04:26:04 10° S visible
23 Dec -0.2 01:59:20 13° SE 01:59:20 13° SE 01:59:45 10° SE visible
23 Dec -0.9 03:32:03 15° SW 03:33:17 18° SSW 03:35:40 10° SSE visible
24 Dec -1.1 02:42:44 25° SSW 02:42:44 25° SSW 02:45:05 10° SSE visible
25 Dec -0.4 01:53:19 18° SSE 01:53:19 18° SSE 01:54:20 10° SE visible
25 Dec -0.2 03:27:16 10° SW 03:28:24 11° SSW 03:29:32 10° S visible
26 Dec -0.5 02:36:28 14° SW 02:37:05 15° SSW 02:39:06 10° SSE visible
27 Dec -0.4 01:46:47 18° S 01:46:47 18° S 01:48:25 10° SSE visible
27 Dec 0.4 05:01:08 10° S 05:01:18 10° SSE 05:01:29 10° SSE visible
